Time,TemperatureF,DewpointF,PressureIn,WindDirection,WindDirectionDegrees,WindSpeedMPH,WindSpeedGustMPH,Humidity,HourlyPrecipIn,Conditions,Clouds,dailyrainin,SoftwareType,DateUTC
2013-04-09 00:00:00,65.5,53.0,30.04,SW,219,0.0,0.0,64,0.00,,---,0.00,VWS V14.01,2013-04-09 04:00:00,
2013-04-09 00:05:00,65.5,53.0,30.04,SW,219,0.0,0.0,64,0.00,,---,0.00,VWS V14.01,2013-04-09 04:05:00,
2013-04-09 00:10:00,65.5,53.0,30.04,South,179,0.0,0.0,64,0.00,,---,0.00,VWS V14.01,2013-04-09 04:10:00,
2013-04-09 00:15:00,65.3,53.2,30.04,South,182,0.0,0.0,65,0.00,,---,0.00,VWS V14.01,2013-04-09 04:15:00,
2013-04-09 00:20:00,65.2,53.2,30.04,South,182,0.0,0.0,65,0.00,,---,0.00,VWS V14.01,2013-04-09 04:20:00,
2013-04-09 00:25:00,65.0,53.4,30.04,SW,222,0.0,0.0,66,0.00,,---,0.00,VWS V14.01,2013-04-09 04:25:00,
2013-04-09 00:30:00,64.8,53.2,30.04,SSW,192,0.0,2.0,66,0.00,,---,0.00,VWS V14.01,2013-04-09 04:30:00,
2013-04-09 00:35:00,64.8,53.6,30.04,East,92,0.0,0.0,67,0.00,,---,0.00,VWS V14.01,2013-04-09 04:35:00,
2013-04-09 00:40:00,64.7,53.5,30.04,SSW,212,0.0,0.0,67,0.00,,---,0.00,VWS V14.01,2013-04-09 04:40:00,
2013-04-09 00:45:00,64.7,53.5,30.04,South,189,0.0,0.0,67,0.00,,---,0.00,VWS V14.01,2013-04-09 04:45:00,
2013-04-09 00:50:00,64.7,53.5,30.04,SSW,192,0.0,0.0,67,0.00,,---,0.00,VWS V14.01,2013-04-09 04:50:00,
2013-04-09 00:55:00,64.5,53.7,30.04,SW,227,0.0,6.0,68,0.00,,---,0.00,VWS V14.01,2013-04-09 04:55:00,
2013-04-09 01:00:00,64.5,53.7,30.04,SSW,203,0.0,0.0,68,0.00,,---,0.00,VWS V14.01,2013-04-09 05:00:00,
2013-04-09 01:05:00,64.5,54.1,30.05,South,186,0.0,0.0,69,0.00,,---,0.00,VWS V14.01,2013-04-09 05:05:00,
2013-04-09 01:10:00,64.3,53.9,30.05,South,179,0.0,0.0,69,0.00,,---,0.00,VWS V14.01,2013-04-09 05:10:00,
2013-04-09 01:15:00,64.3,53.9,30.05,SW,219,0.0,0.0,69,0.00,,---,0.00,VWS V14.01,2013-04-09 05:15:00,
2013-04-09 01:20:00,64.3,54.3,30.05,South,186,0.0,0.0,70,0.00,,---,0.00,VWS V14.01,2013-04-09 05:20:00,
2013-04-09 01:25:00,64.2,54.2,30.05,South,179,0.0,0.0,70,0.00,,---,0.00,VWS V14.01,2013-04-09 05:25:00,
2013-04-09 01:30:00,64.2,54.2,30.05,SSE,152,0.0,0.0,70,0.00,,---,0.00,VWS V14.01,2013-04-09 05:30:00,
2013-04-09 01:35:00,64.0,54.0,30.05,South,174,0.0,0.0,70,0.00,,---,0.00,VWS V14.01,2013-04-09 05:35:00,
2013-04-09 01:40:00,63.9,54.3,30.05,South,176,0.0,0.0,71,0.00,,---,0.00,VWS V14.01,2013-04-09 05:40:00,
2013-04-09 01:45:00,63.7,54.1,30.05,South,181,0.0,0.0,71,0.00,,---,0.00,VWS V14.01,2013-04-09 05:45:00,
2013-04-09 01:50:00,63.5,53.9,30.05,South,184,0.0,2.0,71,0.00,,---,0.00,VWS V14.01,2013-04-09 05:50:00,
2013-04-09 01:55:00,63.5,54.3,30.05,SSE,150,0.0,0.0,72,0.00,,---,0.00,VWS V14.01,2013-04-09 05:55:00,
2013-04-09 02:00:00,63.4,54.2,30.05,SW,220,0.0,0.0,72,0.00,,---,0.00,VWS V14.01,2013-04-09 06:00:00,
2013-04-09 02:05:00,63.4,54.2,30.05,SSE,155,0.0,0.0,72,0.00,,---,0.00,VWS V14.01,2013-04-09 06:05:00,
2013-04-09 02:10:00,63.2,54.4,30.05,South,175,0.0,0.0,73,0.00,,---,0.00,VWS V14.01,2013-04-09 06:10:00,
2013-04-09 02:15:00,63.2,54.4,30.05,SW,222,0.0,0.0,73,0.00,,---,0.00,VWS V14.01,2013-04-09 06:15:00,
2013-04-09 02:20:00,63.2,54.4,30.05,SSW,192,0.0,0.0,73,0.00,,---,0.00,VWS V14.01,2013-04-09 06:20:00,
2013-04-09 02:25:00,63.1,54.3,30.05,South,169,0.0,0.0,73,0.00,,---,0.00,VWS V14.01,2013-04-09 06:25:00,
2013-04-09 02:30:00,63.1,54.7,30.05,SW,215,0.0,0.0,74,0.00,,---,0.00,VWS V14.01,2013-04-09 06:30:00,
2013-04-09 02:35:00,62.9,54.5,30.05,South,169,0.0,0.0,74,0.00,,---,0.00,VWS V14.01,2013-04-09 06:35:00,
2013-04-09 02:40:00,62.7,54.3,30.05,South,189,0.0,0.0,74,0.00,,---,0.00,VWS V14.01,2013-04-09 06:40:00,
2013-04-09 02:45:00,62.6,54.6,30.05,South,189,0.0,0.0,75,0.00,,---,0.00,VWS V14.01,2013-04-09 06:45:00,
2013-04-09 02:50:00,62.4,54.4,30.04,SSW,213,0.0,0.0,75,0.00,,---,0.00,VWS V14.01,2013-04-09 06:50:00,
2013-04-09 02:55:00,62.4,54.4,30.04,South,185,0.0,1.0,75,0.00,,---,0.00,VWS V14.01,2013-04-09 06:55:00,
2013-04-09 03:00:00,62.4,54.8,30.04,South,185,0.0,0.0,76,0.00,,---,0.00,VWS V14.01,2013-04-09 07:00:00,
2013-04-09 03:05:00,62.1,54.5,30.04,ENE,64,0.0,0.0,76,0.00,,---,0.00,VWS V14.01,2013-04-09 07:05:00,
2013-04-09 03:10:00,62.0,54.4,30.04,SSW,209,0.0,0.0,76,0.00,,---,0.00,VWS V14.01,2013-04-09 07:10:00,
2013-04-09 03:15:00,61.8,54.5,30.04,SSW,205,0.0,0.0,77,0.00,,---,0.00,VWS V14.01,2013-04-09 07:15:00,
2013-04-09 03:20:00,61.8,54.5,30.05,SSW,195,0.0,0.0,77,0.00,,---,0.00,VWS V14.01,2013-04-09 07:20:00,
2013-04-09 03:25:00,61.6,54.7,30.05,SE,144,0.0,0.0,78,0.00,,---,0.00,VWS V14.01,2013-04-09 07:25:00,
2013-04-09 03:30:00,61.6,54.7,30.05,SE,145,0.0,0.0,78,0.00,,---,0.00,VWS V14.01,2013-04-09 07:30:00,
2013-04-09 03:35:00,61.5,54.6,30.05,SE,145,0.0,0.0,78,0.00,,---,0.00,VWS V14.01,2013-04-09 07:35:00,
2013-04-09 03:40:00,61.3,54.4,30.05,SE,145,0.0,0.0,78,0.00,,---,0.00,VWS V14.01,2013-04-09 07:40:00,
2013-04-09 03:45:00,61.2,54.6,30.05,SE,145,0.0,0.0,79,0.00,,---,0.00,VWS V14.01,2013-04-09 07:45:00,
2013-04-09 03:50:00,61.2,55.0,30.05,SSW,205,0.0,0.0,80,0.00,,---,0.00,VWS V14.01,2013-04-09 07:50:00,
2013-04-09 03:55:00,61.2,55.0,30.05,SSW,200,0.0,0.0,80,0.00,,---,0.00,VWS V14.01,2013-04-09 07:55:00,
2013-04-09 04:00:00,61.2,55.0,30.05,SSE,162,0.0,0.0,80,0.00,,---,0.00,VWS V14.01,2013-04-09 08:00:00,
2013-04-09 04:05:00,61.2,55.0,30.05,SSE,162,0.0,0.0,80,0.00,,---,0.00,VWS V14.01,2013-04-09 08:05:00,
2013-04-09 04:10:00,61.0,55.1,30.05,SE,133,0.0,0.0,81,0.00,,---,0.00,VWS V14.01,2013-04-09 08:10:00,
2013-04-09 04:15:00,61.2,55.3,30.05,South,179,0.0,0.0,81,0.00,,---,0.00,VWS V14.01,2013-04-09 08:15:00,
2013-04-09 04:20:00,61.0,55.1,30.06,SW,232,0.0,0.0,81,0.00,,---,0.00,VWS V14.01,2013-04-09 08:20:00,
2013-04-09 04:25:00,61.0,55.1,30.06,SW,232,0.0,0.0,81,0.00,,---,0.00,VWS V14.01,2013-04-09 08:25:00,
2013-04-09 04:30:00,61.0,55.5,30.06,SW,230,0.0,0.0,82,0.00,,---,0.00,VWS V14.01,2013-04-09 08:30:00,
2013-04-09 04:35:00,61.0,55.5,30.06,SW,217,0.0,0.0,82,0.00,,---,0.00,VWS V14.01,2013-04-09 08:35:00,
2013-04-09 04:40:00,60.9,55.4,30.06,SW,217,0.0,0.0,82,0.00,,---,0.00,VWS V14.01,2013-04-09 08:40:00,
2013-04-09 04:45:00,60.9,56.0,30.06,SSW,209,0.0,0.0,84,0.00,,---,0.00,VWS V14.01,2013-04-09 08:45:00,
2013-04-09 04:50:00,60.9,55.7,30.06,SSE,151,0.0,0.0,83,0.00,,---,0.00,VWS V14.01,2013-04-09 08:50:00,
2013-04-09 04:55:00,60.7,55.8,30.06,SSE,154,0.0,1.0,84,0.00,,---,0.00,VWS V14.01,2013-04-09 08:55:00,
2013-04-09 05:00:00,60.7,55.8,30.06,SW,215,0.0,0.0,84,0.00,,---,0.00,VWS V14.01,2013-04-09 09:00:00,
2013-04-09 05:05:00,60.7,55.8,30.06,SW,215,0.0,0.0,84,0.00,,---,0.00,VWS V14.01,2013-04-09 09:05:00,
2013-04-09 05:10:00,60.5,55.7,30.06,SW,215,0.0,0.0,84,0.00,,---,0.00,VWS V14.01,2013-04-09 09:10:00,
2013-04-09 05:15:00,60.5,56.0,30.06,SSW,206,0.0,0.0,85,0.00,,---,0.00,VWS V14.01,2013-04-09 09:15:00,
2013-04-09 05:20:00,60.5,56.0,30.06,SE,136,0.0,0.0,85,0.00,,---,0.00,VWS V14.01,2013-04-09 09:20:00,
2013-04-09 05:25:00,60.5,56.0,30.06,SSE,160,0.0,0.0,85,0.00,,---,0.00,VWS V14.01,2013-04-09 09:25:00,
2013-04-09 05:30:00,60.5,56.0,30.06,SSE,164,0.0,0.0,85,0.00,,---,0.00,VWS V14.01,2013-04-09 09:30:00,
2013-04-09 05:35:00,60.7,56.2,30.07,SSE,158,0.0,0.0,85,0.00,,---,0.00,VWS V14.01,2013-04-09 09:35:00,
2013-04-09 05:40:00,60.7,56.2,30.07,SSE,160,0.0,0.0,85,0.00,,---,0.00,VWS V14.01,2013-04-09 09:40:00,
2013-04-09 05:45:00,60.5,56.0,30.07,SSW,192,0.0,0.0,85,0.00,,---,0.00,VWS V14.01,2013-04-09 09:45:00,
2013-04-09 05:50:00,60.5,56.3,30.07,SE,133,0.0,0.0,86,0.00,,---,0.00,VWS V14.01,2013-04-09 09:50:00,
2013-04-09 05:55:00,60.5,56.3,30.07,South,182,0.0,0.0,86,0.00,,---,0.00,VWS V14.01,2013-04-09 09:55:00,
2013-04-09 06:00:00,60.4,56.2,30.07,South,175,0.0,0.0,86,0.00,,---,0.00,VWS V14.01,2013-04-09 10:00:00,
2013-04-09 06:05:00,60.2,56.0,30.08,South,176,0.0,0.0,86,0.00,,---,0.00,VWS V14.01,2013-04-09 10:05:00,
2013-04-09 06:10:00,60.2,56.3,30.08,SSE,150,0.0,0.0,87,0.00,,---,0.00,VWS V14.01,2013-04-09 10:10:00,
2013-04-09 06:15:00,60.1,56.2,30.08,SSE,152,0.0,0.0,87,0.00,,---,0.00,VWS V14.01,2013-04-09 10:15:00,
2013-04-09 06:20:00,60.1,56.2,30.08,SSE,152,0.0,0.0,87,0.00,,---,0.00,VWS V14.01,2013-04-09 10:20:00,
2013-04-09 06:25:00,59.9,56.0,30.08,ESE,123,0.0,0.0,87,0.00,,---,0.00,VWS V14.01,2013-04-09 10:25:00,
2013-04-09 06:30:00,59.8,55.9,30.08,SE,124,0.0,0.0,87,0.00,,---,0.00,VWS V14.01,2013-04-09 10:30:00,
2013-04-09 06:35:00,59.8,56.2,30.09,SE,124,0.0,0.0,88,0.00,,---,0.00,VWS V14.01,2013-04-09 10:35:00,
2013-04-09 06:40:00,59.8,56.2,30.09,SE,124,0.0,0.0,88,0.00,,---,0.00,VWS V14.01,2013-04-09 10:40:00,
2013-04-09 06:45:00,59.8,56.6,30.09,SE,124,0.0,0.0,89,0.00,,---,0.00,VWS V14.01,2013-04-09 10:45:00,
2013-04-09 06:50:00,59.9,56.7,30.09,SE,124,0.0,0.0,89,0.00,,---,0.00,VWS V14.01,2013-04-09 10:50:00,
2013-04-09 06:55:00,59.9,56.7,30.09,SE,124,0.0,0.0,89,0.00,,---,0.00,VWS V14.01,2013-04-09 10:55:00,
2013-04-09 07:00:00,59.9,56.7,30.09,South,188,0.0,0.0,89,0.00,,---,0.00,VWS V14.01,2013-04-09 11:00:00,
2013-04-09 07:05:00,59.9,56.3,30.09,South,188,0.0,0.0,88,0.00,,---,0.00,VWS V14.01,2013-04-09 11:05:00,
2013-04-09 07:10:00,59.9,56.3,30.09,South,185,0.0,0.0,88,0.00,,---,0.00,VWS V14.01,2013-04-09 11:10:00,
2013-04-09 07:15:00,59.9,56.7,30.09,SW,232,0.0,0.0,89,0.00,,---,0.00,VWS V14.01,2013-04-09 11:15:00,
2013-04-09 07:20:00,59.9,56.7,30.10,SW,226,0.0,0.0,89,0.00,,---,0.00,VWS V14.01,2013-04-09 11:20:00,
2013-04-09 07:25:00,60.1,56.8,30.10,SSE,150,0.0,0.0,89,0.00,,---,0.00,VWS V14.01,2013-04-09 11:25:00,
2013-04-09 07:30:00,60.1,56.8,30.10,SSE,150,0.0,0.0,89,0.00,,---,0.00,VWS V14.01,2013-04-09 11:30:00,
2013-04-09 07:35:00,60.2,56.6,30.10,SSE,152,0.0,0.0,88,0.00,,---,0.00,VWS V14.01,2013-04-09 11:35:00,
2013-04-09 07:40:00,60.2,56.6,30.10,SSE,161,0.0,0.0,88,0.00,,---,0.00,VWS V14.01,2013-04-09 11:40:00,
2013-04-09 07:45:00,60.4,56.8,30.10,SSE,165,0.0,0.0,88,0.00,,---,0.00,VWS V14.01,2013-04-09 11:45:00,
2013-04-09 07:50:00,60.5,56.6,30.11,SSE,162,0.0,0.0,87,0.00,,---,0.00,VWS V14.01,2013-04-09 11:50:00,
2013-04-09 07:55:00,60.7,56.8,30.11,South,172,0.0,0.0,87,0.00,,---,0.00,VWS V14.01,2013-04-09 11:55:00,
2013-04-09 08:00:00,61.0,57.1,30.11,SSE,161,0.0,0.0,87,0.00,,---,0.00,VWS V14.01,2013-04-09 12:00:00,
2013-04-09 08:05:00,61.2,56.7,30.11,South,179,0.0,0.0,85,0.00,,---,0.00,VWS V14.01,2013-04-09 12:05:00,
2013-04-09 08:10:00,61.6,56.7,30.11,SSE,150,0.0,0.0,84,0.00,,---,0.00,VWS V14.01,2013-04-09 12:10:00,
2013-04-09 08:15:00,62.0,56.8,30.11,SSW,193,0.0,0.0,83,0.00,,---,0.00,VWS V14.01,2013-04-09 12:15:00,
2013-04-09 08:20:00,62.3,56.7,30.11,ESE,106,0.0,0.0,82,0.00,,---,0.00,VWS V14.01,2013-04-09 12:20:00,
2013-04-09 08:25:00,62.6,56.7,30.11,ESE,106,0.0,0.0,81,0.00,,---,0.00,VWS V14.01,2013-04-09 12:25:00,
2013-04-09 08:30:00,62.9,57.0,30.11,ESE,104,0.0,0.0,81,0.00,,---,0.00,VWS V14.01,2013-04-09 12:30:00,
2013-04-09 08:35:00,63.2,56.6,30.12,SSE,164,0.0,0.0,79,0.00,,---,0.00,VWS V14.01,2013-04-09 12:35:00,
2013-04-09 08:40:00,63.5,56.9,30.12,ESE,114,0.0,0.0,79,0.00,,---,0.00,VWS V14.01,2013-04-09 12:40:00,
2013-04-09 08:45:00,63.9,56.6,30.12,ENE,69,0.0,0.0,77,0.00,,---,0.00,VWS V14.01,2013-04-09 12:45:00,
2013-04-09 08:50:00,64.2,56.5,30.11,SSE,161,0.0,0.0,76,0.00,,---,0.00,VWS V14.01,2013-04-09 12:50:00,
2013-04-09 08:55:00,64.5,56.8,30.11,ESE,109,0.0,0.0,76,0.00,,---,0.00,VWS V14.01,2013-04-09 12:55:00,
2013-04-09 09:00:00,64.8,56.7,30.11,ESE,117,0.0,2.0,75,0.00,,---,0.00,VWS V14.01,2013-04-09 13:00:00,
2013-04-09 09:05:00,65.3,56.8,30.12,NNE,18,0.0,0.0,74,0.00,,---,0.00,VWS V14.01,2013-04-09 13:05:00,
2013-04-09 09:10:00,65.6,56.7,30.12,NNE,21,0.0,0.0,73,0.00,,---,0.00,VWS V14.01,2013-04-09 13:10:00,
2013-04-09 09:15:00,66.1,56.8,30.12,ENE,76,0.0,0.0,72,0.00,,---,0.00,VWS V14.01,2013-04-09 13:15:00,
2013-04-09 09:20:00,66.4,56.3,30.12,North,352,0.0,0.0,70,0.00,,---,0.00,VWS V14.01,2013-04-09 13:20:00,
2013-04-09 09:25:00,66.8,56.7,30.12,NE,52,0.0,0.0,70,0.00,,---,0.00,VWS V14.01,2013-04-09 13:25:00,
2013-04-09 09:30:00,67.1,57.0,30.12,NE,52,0.0,0.0,70,0.00,,---,0.00,VWS V14.01,2013-04-09 13:30:00,
2013-04-09 09:35:00,67.8,56.9,30.12,East,93,0.0,5.0,68,0.00,,---,0.00,VWS V14.01,2013-04-09 13:35:00,
2013-04-09 09:40:00,68.3,56.5,30.12,SE,136,0.0,1.0,66,0.00,,---,0.00,VWS V14.01,2013-04-09 13:40:00,
2013-04-09 09:45:00,68.8,56.6,30.12,ENE,58,2.0,5.0,65,0.00,,---,0.00,VWS V14.01,2013-04-09 13:45:00,
2013-04-09 09:50:00,69.1,56.4,30.12,ENE,59,0.0,0.0,64,0.00,,---,0.00,VWS V14.01,2013-04-09 13:50:00,
2013-04-09 09:55:00,69.4,56.7,30.12,North,0,1.0,1.0,64,0.00,,---,0.00,VWS V14.01,2013-04-09 13:55:00,
2013-04-09 10:00:00,69.9,56.3,30.12,ESE,117,0.0,0.0,62,0.00,,---,0.00,VWS V14.01,2013-04-09 14:00:00,
2013-04-09 10:05:00,70.3,56.7,30.11,ESE,107,0.0,3.0,62,0.00,,---,0.00,VWS V14.01,2013-04-09 14:05:00,
2013-04-09 10:10:00,70.8,56.7,30.11,ESE,116,0.0,5.0,61,0.00,,---,0.00,VWS V14.01,2013-04-09 14:10:00,
2013-04-09 10:15:00,66.4,57.1,30.12,NNW,333,0.0,3.0,72,0.00,,---,0.00,VWS V14.01,2013-04-09 14:15:00,
2013-04-09 10:16:00,71.5,56.4,30.11,North,0,0.0,0.0,59,0.00,,---,0.00,VWS V14.01,2013-04-09 14:16:00,
2013-04-09 10:20:00,66.8,56.7,30.12,NE,51,0.0,4.0,70,0.00,,---,0.00,VWS V14.01,2013-04-09 14:20:00,
2013-04-09 10:21:00,72.1,57.0,30.11,North,6,0.0,0.0,59,0.00,,---,0.00,VWS V14.01,2013-04-09 14:21:00,
2013-04-09 10:25:00,67.1,57.0,30.12,NE,52,0.0,0.0,70,0.00,,---,0.00,VWS V14.01,2013-04-09 14:25:00,
2013-04-09 10:26:00,72.7,56.6,30.11,NE,51,0.0,0.0,57,0.00,,---,0.00,VWS V14.01,2013-04-09 14:26:00,
2013-04-09 10:30:00,67.6,56.7,30.12,SW,220,0.0,2.0,68,0.00,,---,0.00,VWS V14.01,2013-04-09 14:30:00,
2013-04-09 10:31:00,72.7,55.6,30.11,North,0,0.0,1.0,55,0.00,,---,0.00,VWS V14.01,2013-04-09 14:31:00,
2013-04-09 10:35:00,68.1,56.7,30.12,East,100,1.0,5.0,67,0.00,,---,0.00,VWS V14.01,2013-04-09 14:35:00,
2013-04-09 10:36:00,73.2,56.6,30.11,NE,48,0.0,0.0,56,0.00,,---,0.00,VWS V14.01,2013-04-09 14:36:00,
2013-04-09 10:40:00,68.6,56.4,30.12,North,11,0.0,1.0,65,0.00,,---,0.00,VWS V14.01,2013-04-09 14:40:00,
2013-04-09 10:41:00,73.7,57.0,30.11,ESE,123,0.0,4.0,56,0.00,,---,0.00,VWS V14.01,2013-04-09 14:41:00,
2013-04-09 10:45:00,68.9,56.2,30.12,ENE,61,0.0,5.0,64,0.00,,---,0.00,VWS V14.01,2013-04-09 14:45:00,
2013-04-09 10:46:00,73.9,56.2,30.11,East,80,0.0,0.0,54,0.00,,---,0.00,VWS V14.01,2013-04-09 14:46:00,
2013-04-09 10:50:00,69.4,56.7,30.12,North,356,0.0,3.0,64,0.00,,---,0.00,VWS V14.01,2013-04-09 14:50:00,
2013-04-09 10:51:00,74.4,56.2,30.11,South,186,0.0,0.0,53,0.00,,---,0.00,VWS V14.01,2013-04-09 14:51:00,
2013-04-09 10:55:00,69.8,56.7,30.12,ESE,117,0.0,5.0,63,0.00,,---,0.00,VWS V14.01,2013-04-09 14:55:00,
2013-04-09 10:56:00,75.3,55.9,30.11,ESE,104,0.0,0.0,51,0.00,,---,0.00,VWS V14.01,2013-04-09 14:56:00,
2013-04-09 11:00:00,70.1,56.5,30.11,East,97,0.0,6.0,62,0.00,,---,0.00,VWS V14.01,2013-04-09 15:00:00,
2013-04-09 11:01:00,75.8,56.9,30.11,NE,51,0.0,0.0,52,0.00,,---,0.00,VWS V14.01,2013-04-09 15:01:00,
2013-04-09 11:05:00,70.6,56.5,30.11,ESE,114,5.0,5.0,61,0.00,,---,0.00,VWS V14.01,2013-04-09 15:05:00,
2013-04-09 11:06:00,76.1,56.1,30.11,South,189,0.0,0.0,50,0.00,,---,0.00,VWS V14.01,2013-04-09 15:06:00,
2013-04-09 11:10:00,71.3,56.2,30.11,South,186,0.0,5.0,59,0.00,,---,0.00,VWS V14.01,2013-04-09 15:10:00,
2013-04-09 11:11:00,76.0,56.0,30.11,North,0,0.0,0.0,50,0.00,,---,0.00,VWS V14.01,2013-04-09 15:11:00,
2013-04-09 11:15:00,72.0,56.4,30.11,North,6,0.0,0.0,58,0.00,,---,0.00,VWS V14.01,2013-04-09 15:15:00,
2013-04-09 11:16:00,76.1,56.7,30.11,ESE,120,0.0,0.0,51,0.00,,---,0.00,VWS V14.01,2013-04-09 15:16:00,
2013-04-09 11:20:00,72.5,56.4,30.11,NE,51,0.0,5.0,57,0.00,,---,0.00,VWS V14.01,2013-04-09 15:20:00,
2013-04-09 11:21:00,76.7,56.7,30.11,SSE,165,0.0,1.0,50,0.00,,---,0.00,VWS V14.01,2013-04-09 15:21:00,
2013-04-09 11:25:00,72.8,56.2,30.11,North,8,0.0,5.0,56,0.00,,---,0.00,VWS V14.01,2013-04-09 15:25:00,
2013-04-09 11:26:00,77.4,56.8,30.11,SSE,161,0.0,0.0,49,0.00,,---,0.00,VWS V14.01,2013-04-09 15:26:00,
2013-04-09 11:30:00,73.0,56.4,30.11,NE,48,0.0,1.0,56,0.00,,---,0.00,VWS V14.01,2013-04-09 15:30:00,
2013-04-09 11:31:00,78.1,56.2,30.11,East,96,0.0,0.0,47,0.00,,---,0.00,VWS V14.01,2013-04-09 15:31:00,
2013-04-09 11:35:00,73.7,57.0,30.11,SE,137,0.0,1.0,56,0.00,,---,0.00,VWS V14.01,2013-04-09 15:35:00,
2013-04-09 11:36:00,78.1,55.7,30.11,SE,131,0.0,0.0,46,0.00,,---,0.00,VWS V14.01,2013-04-09 15:36:00,
2013-04-09 11:40:00,73.9,56.2,30.11,South,179,0.0,4.0,54,0.00,,---,0.00,VWS V14.01,2013-04-09 15:40:00,
2013-04-09 11:41:00,78.3,54.6,30.11,South,181,0.0,0.0,44,0.00,,---,0.00,VWS V14.01,2013-04-09 15:41:00,
2013-04-09 11:45:00,74.0,55.8,30.11,South,186,0.0,1.0,53,0.00,,---,0.00,VWS V14.01,2013-04-09 15:45:00,
2013-04-09 11:46:00,78.6,55.5,30.11,North,10,0.0,2.0,45,0.00,,---,0.00,VWS V14.01,2013-04-09 15:46:00,
2013-04-09 11:50:00,74.7,56.5,30.11,ESE,104,0.0,2.0,53,0.00,,---,0.00,VWS V14.01,2013-04-09 15:50:00,
2013-04-09 11:51:00,78.6,55.5,30.10,North,359,1.0,1.0,45,0.00,,---,0.00,VWS V14.01,2013-04-09 15:51:00,
2013-04-09 11:55:00,75.6,56.2,30.11,NNE,25,0.0,1.0,51,0.00,,---,0.00,VWS V14.01,2013-04-09 15:55:00,
2013-04-09 11:56:00,78.5,55.4,30.10,SSW,192,0.0,0.0,45,0.00,,---,0.00,VWS V14.01,2013-04-09 15:56:00,
2013-04-09 12:00:00,76.1,56.7,30.11,South,191,0.0,5.0,51,0.00,,---,0.00,VWS V14.01,2013-04-09 16:00:00,
2013-04-09 12:01:00,78.6,54.9,30.10,ESE,102,0.0,0.0,44,0.00,,---,0.00,VWS V14.01,2013-04-09 16:01:00,
2013-04-09 12:05:00,76.1,56.7,30.11,NNW,336,0.0,4.0,51,0.00,,---,0.00,VWS V14.01,2013-04-09 16:05:00,
2013-04-09 12:06:00,79.8,54.7,30.10,ESE,106,0.0,0.0,42,0.00,,---,0.00,VWS V14.01,2013-04-09 16:06:00,
2013-04-09 12:10:00,76.0,56.6,30.11,ESE,120,0.0,1.0,51,0.00,,---,0.00,VWS V14.01,2013-04-09 16:10:00,
2013-04-09 12:11:00,80.1,55.0,30.10,ESE,112,0.0,0.0,42,0.00,,---,0.00,VWS V14.01,2013-04-09 16:11:00,
2013-04-09 12:15:00,76.5,56.5,30.11,East,88,0.0,5.0,50,0.00,,---,0.00,VWS V14.01,2013-04-09 16:15:00,
2013-04-09 12:16:00,80.5,54.7,30.10,ESE,112,0.0,0.0,41,0.00,,---,0.00,VWS V14.01,2013-04-09 16:16:00,
2013-04-09 12:20:00,77.2,56.6,30.11,SSE,161,0.0,1.0,49,0.00,,---,0.00,VWS V14.01,2013-04-09 16:20:00,
2013-04-09 12:21:00,80.5,54.7,30.09,South,174,0.0,1.0,41,0.00,,---,0.00,VWS V14.01,2013-04-09 16:21:00,
2013-04-09 12:25:00,77.9,56.7,30.11,East,96,0.0,0.0,48,0.00,,---,0.00,VWS V14.01,2013-04-09 16:25:00,
2013-04-09 12:26:00,81.1,55.9,30.09,NNE,23,0.0,0.0,42,0.00,,---,0.00,VWS V14.01,2013-04-09 16:26:00,
2013-04-09 12:30:00,78.3,55.8,30.11,SE,131,0.0,1.0,46,0.00,,---,0.00,VWS V14.01,2013-04-09 16:30:00,
2013-04-09 12:31:00,81.4,54.1,30.09,SSW,212,0.0,4.0,39,0.00,,---,0.00,VWS V14.01,2013-04-09 16:31:00,
2013-04-09 12:35:00,78.3,54.6,30.11,South,181,0.0,1.0,44,0.00,,---,0.00,VWS V14.01,2013-04-09 16:35:00,
2013-04-09 12:36:00,81.6,55.0,30.09,NNE,14,0.0,0.0,40,0.00,,---,0.00,VWS V14.01,2013-04-09 16:36:00,
2013-04-09 12:40:00,78.6,54.9,30.11,SE,130,0.0,3.0,44,0.00,,---,0.00,VWS V14.01,2013-04-09 16:40:00,
2013-04-09 12:41:00,81.8,54.5,30.09,NNE,14,0.0,0.0,39,0.00,,---,0.00,VWS V14.01,2013-04-09 16:41:00,
2013-04-09 12:45:00,78.6,55.5,30.10,SSE,165,0.0,2.0,45,0.00,,---,0.00,VWS V14.01,2013-04-09 16:45:00,
2013-04-09 12:46:00,82.4,52.0,30.09,NNE,13,0.0,0.0,35,0.00,,---,0.00,VWS V14.01,2013-04-09 16:46:00,
2013-04-09 12:50:00,78.5,54.8,30.10,NNE,24,0.0,2.0,44,0.00,,---,0.00,VWS V14.01,2013-04-09 16:50:00,
2013-04-09 12:51:00,83.2,53.5,30.08,SSE,148,0.0,0.0,36,0.00,,---,0.00,VWS V14.01,2013-04-09 16:51:00,
2013-04-09 12:55:00,78.6,54.9,30.10,ESE,102,0.0,2.0,44,0.00,,---,0.00,VWS V14.01,2013-04-09 16:55:00,
2013-04-09 12:56:00,83.6,53.1,30.08,SE,130,0.0,3.0,35,0.00,,---,0.00,VWS V14.01,2013-04-09 16:56:00,
2013-04-09 13:00:00,79.6,54.5,30.10,ESE,106,0.0,0.0,42,0.00,,---,0.00,VWS V14.01,2013-04-09 17:00:00,
2013-04-09 13:01:00,83.8,52.5,30.08,NNE,20,0.0,0.0,34,0.00,,---,0.00,VWS V14.01,2013-04-09 17:01:00,
2013-04-09 13:05:00,80.1,53.6,30.10,ESE,112,0.0,0.0,40,0.00,,---,0.00,VWS V14.01,2013-04-09 17:05:00,
2013-04-09 13:06:00,83.6,53.1,30.07,SW,215,2.0,3.0,35,0.00,,---,0.00,VWS V14.01,2013-04-09 17:06:00,
2013-04-09 13:10:00,80.5,54.7,30.10,ESE,113,0.0,0.0,41,0.00,,---,0.00,VWS V14.01,2013-04-09 17:10:00,
2013-04-09 13:11:00,83.2,50.3,30.07,SSE,164,0.0,0.0,32,0.00,,---,0.00,VWS V14.01,2013-04-09 17:11:00,
2013-04-09 13:15:00,80.7,54.8,30.09,SSW,193,0.0,1.0,41,0.00,,---,0.00,VWS V14.01,2013-04-09 17:15:00,
2013-04-09 13:16:00,83.4,52.1,30.07,South,174,0.0,0.0,34,0.00,,---,0.00,VWS V14.01,2013-04-09 17:16:00,
2013-04-09 13:20:00,80.7,55.5,30.09,NNE,23,0.0,1.0,42,0.00,,---,0.00,VWS V14.01,2013-04-09 17:20:00,
2013-04-09 13:21:00,83.4,51.3,30.07,SSE,148,0.0,0.0,33,0.00,,---,0.00,VWS V14.01,2013-04-09 17:21:00,
2013-04-09 13:25:00,81.4,56.1,30.09,SSE,154,4.0,5.0,42,0.00,,---,0.00,VWS V14.01,2013-04-09 17:25:00,
2013-04-09 13:26:00,84.1,52.7,30.07,ESE,104,3.0,3.0,34,0.00,,---,0.00,VWS V14.01,2013-04-09 17:26:00,
2013-04-09 13:30:00,81.4,53.4,30.09,SE,133,0.0,4.0,38,0.00,,---,0.00,VWS V14.01,2013-04-09 17:30:00,
2013-04-09 13:31:00,84.7,51.6,30.07,SSW,199,0.0,2.0,32,0.00,,---,0.00,VWS V14.01,2013-04-09 17:31:00,
2013-04-09 13:36:00,84.7,51.6,30.06,NNE,24,0.0,0.0,32,0.00,,---,0.00,VWS V14.01,2013-04-09 17:36:00,
2013-04-09 13:44:00,85.5,51.4,30.06,NNW,330,0.0,0.0,31,0.00,,---,0.00,VWS V14.01,2013-04-09 17:44:00,
2013-04-09 13:49:00,84.7,49.9,30.06,North,0,0.0,1.0,30,0.00,,---,0.00,VWS V14.01,2013-04-09 17:49:00,
2013-04-09 13:54:00,84.7,49.0,30.06,ESE,109,0.0,2.0,29,0.00,,---,0.00,VWS V14.01,2013-04-09 17:54:00,
2013-04-09 13:59:00,84.7,49.9,30.06,NE,42,0.0,0.0,30,0.00,,---,0.00,VWS V14.01,2013-04-09 17:59:00,
2013-04-09 14:04:00,85.5,51.4,30.05,South,181,0.0,2.0,31,0.00,,---,0.00,VWS V14.01,2013-04-09 18:04:00,
2013-04-09 14:09:00,85.7,49.8,30.05,South,178,0.0,0.0,29,0.00,,---,0.00,VWS V14.01,2013-04-09 18:09:00,
2013-04-09 14:14:00,85.1,49.3,30.05,SSE,162,0.0,3.0,29,0.00,,---,0.00,VWS V14.01,2013-04-09 18:14:00,
2013-04-09 14:19:00,85.1,49.3,30.05,NE,34,0.0,0.0,29,0.00,,---,0.00,VWS V14.01,2013-04-09 18:19:00,
2013-04-09 14:24:00,85.7,49.8,30.05,North,357,0.0,0.0,29,0.00,,---,0.00,VWS V14.01,2013-04-09 18:24:00,
2013-04-09 14:30:00,85.9,50.0,30.05,NE,42,0.0,0.0,29,0.00,,---,0.00,VWS V14.01,2013-04-09 18:30:00,
2013-04-09 14:35:00,85.9,50.0,30.04,SSW,198,0.0,0.0,29,0.00,,---,0.00,VWS V14.01,2013-04-09 18:35:00,
2013-04-09 14:40:00,85.9,50.0,30.04,East,99,0.0,0.0,29,0.00,,---,0.00,VWS V14.01,2013-04-09 18:40:00,
2013-04-09 14:45:00,86.5,49.6,30.04,North,0,0.0,0.0,28,0.00,,---,0.00,VWS V14.01,2013-04-09 18:45:00,
2013-04-09 14:50:00,86.3,50.3,30.03,NE,42,0.0,0.0,29,0.00,,---,0.00,VWS V14.01,2013-04-09 18:50:00,
2013-04-09 14:55:00,85.9,49.0,30.03,ESE,106,0.0,0.0,28,0.00,,---,0.00,VWS V14.01,2013-04-09 18:55:00,
2013-04-09 15:00:00,86.3,49.4,30.03,North,0,0.0,0.0,28,0.00,,---,0.00,VWS V14.01,2013-04-09 19:00:00,
2013-04-09 15:05:00,86.1,49.2,30.03,SSW,203,0.0,0.0,28,0.00,,---,0.00,VWS V14.01,2013-04-09 19:05:00,
2013-04-09 15:10:00,86.5,49.6,30.03,SE,137,0.0,0.0,28,0.00,,---,0.00,VWS V14.01,2013-04-09 19:10:00,
2013-04-09 15:15:00,86.5,51.4,30.03,SE,140,6.0,6.0,30,0.00,,---,0.00,VWS V14.01,2013-04-09 19:15:00,
2013-04-09 15:20:00,85.9,50.0,30.02,ESE,106,0.0,0.0,29,0.00,,---,0.00,VWS V14.01,2013-04-09 19:20:00,
2013-04-09 15:25:00,85.7,49.8,30.02,WSW,254,0.0,0.0,29,0.00,,---,0.00,VWS V14.01,2013-04-09 19:25:00,
2013-04-09 15:30:00,85.5,50.6,30.02,SE,141,0.0,0.0,30,0.00,,---,0.00,VWS V14.01,2013-04-09 19:30:00,
2013-04-09 15:35:00,85.1,48.4,30.02,SSW,203,2.0,10.0,28,0.00,,---,0.00,VWS V14.01,2013-04-09 19:35:00,
2013-04-09 15:40:00,85.1,49.3,30.02,East,95,0.0,0.0,29,0.00,,---,0.00,VWS V14.01,2013-04-09 19:40:00,
2013-04-09 15:45:00,84.9,49.1,30.02,SSE,167,0.0,0.0,29,0.00,,---,0.00,VWS V14.01,2013-04-09 19:45:00,
2013-04-09 15:50:00,84.5,48.8,30.01,SW,219,0.0,0.0,29,0.00,,---,0.00,VWS V14.01,2013-04-09 19:50:00,
2013-04-09 15:55:00,84.3,50.4,30.01,SSE,160,1.0,1.0,31,0.00,,---,0.00,VWS V14.01,2013-04-09 19:55:00,
2013-04-09 16:00:00,84.3,50.4,30.01,ESE,123,2.0,3.0,31,0.00,,---,0.00,VWS V14.01,2013-04-09 20:00:00,
2013-04-09 16:05:00,84.5,50.6,30.00,East,88,0.0,0.0,31,0.00,,---,0.00,VWS V14.01,2013-04-09 20:05:00,
2013-04-09 16:10:00,84.9,50.0,30.00,SSW,209,0.0,0.0,30,0.00,,---,0.00,VWS V14.01,2013-04-09 20:10:00,
2013-04-09 16:15:00,84.3,50.4,30.00,ESE,109,0.0,0.0,31,0.00,,---,0.00,VWS V14.01,2013-04-09 20:15:00,
2013-04-09 16:20:00,84.0,51.8,30.00,South,191,0.0,0.0,33,0.00,,---,0.00,VWS V14.01,2013-04-09 20:20:00,
2013-04-09 16:25:00,84.1,51.1,30.00,ESE,106,0.0,0.0,32,0.00,,---,0.00,VWS V14.01,2013-04-09 20:25:00,
2013-04-09 16:30:00,84.1,50.2,30.00,SSW,198,0.0,0.0,31,0.00,,---,0.00,VWS V14.01,2013-04-09 20:30:00,
2013-04-09 16:35:00,84.1,51.1,29.99,SW,223,0.0,3.0,32,0.00,,---,0.00,VWS V14.01,2013-04-09 20:35:00,
2013-04-09 16:40:00,84.0,51.0,29.99,ESE,121,0.0,0.0,32,0.00,,---,0.00,VWS V14.01,2013-04-09 20:40:00,
2013-04-09 16:45:00,83.8,50.8,29.99,NNE,25,0.0,0.0,32,0.00,,---,0.00,VWS V14.01,2013-04-09 20:45:00,
2013-04-09 16:50:00,83.6,53.1,29.99,South,188,0.0,1.0,35,0.00,,---,0.00,VWS V14.01,2013-04-09 20:50:00,
2013-04-09 16:55:00,83.4,52.9,29.99,East,100,0.0,4.0,35,0.00,,---,0.00,VWS V14.01,2013-04-09 20:55:00,
2013-04-09 17:00:00,83.4,52.1,29.99,East,88,1.0,2.0,34,0.00,,---,0.00,VWS V14.01,2013-04-09 21:00:00,
2013-04-09 17:05:00,83.2,51.9,29.99,SSW,195,0.0,0.0,34,0.00,,---,0.00,VWS V14.01,2013-04-09 21:05:00,
2013-04-09 17:10:00,83.2,51.9,29.99,SSW,206,0.0,0.0,34,0.00,,---,0.00,VWS V14.01,2013-04-09 21:10:00,
2013-04-09 17:15:00,83.0,52.6,29.99,SE,134,0.0,0.0,35,0.00,,---,0.00,VWS V14.01,2013-04-09 21:15:00,
2013-04-09 17:20:00,83.0,51.8,29.99,West,270,1.0,3.0,34,0.00,,---,0.00,VWS V14.01,2013-04-09 21:20:00,
2013-04-09 17:25:00,82.8,51.6,29.99,SSW,198,0.0,0.0,34,0.00,,---,0.00,VWS V14.01,2013-04-09 21:25:00,
2013-04-09 17:30:00,82.8,52.4,29.99,ESE,110,0.0,0.0,35,0.00,,---,0.00,VWS V14.01,2013-04-09 21:30:00,
2013-04-09 17:35:00,82.6,52.2,29.99,SSW,195,0.0,0.0,35,0.00,,---,0.00,VWS V14.01,2013-04-09 21:35:00,
2013-04-09 17:40:00,82.6,53.0,29.99,SSW,195,0.0,0.0,36,0.00,,---,0.00,VWS V14.01,2013-04-09 21:40:00,
2013-04-09 17:45:00,82.6,53.0,29.99,SSW,199,0.0,0.0,36,0.00,,---,0.00,VWS V14.01,2013-04-09 21:45:00,
2013-04-09 17:50:00,82.6,52.2,29.99,SSW,202,0.0,1.0,35,0.00,,---,0.00,VWS V14.01,2013-04-09 21:50:00,
2013-04-09 17:55:00,82.4,52.8,29.99,SE,143,0.0,0.0,36,0.00,,---,0.00,VWS V14.01,2013-04-09 21:55:00,
2013-04-09 18:01:00,82.4,52.0,29.99,South,172,3.0,3.0,35,0.00,,---,0.00,VWS V14.01,2013-04-09 22:01:00,
2013-04-09 18:06:00,82.2,53.4,29.99,South,175,0.0,0.0,37,0.00,,---,0.00,VWS V14.01,2013-04-09 22:06:00,
2013-04-09 18:11:00,82.0,53.2,29.99,NE,45,0.0,0.0,37,0.00,,---,0.00,VWS V14.01,2013-04-09 22:11:00,
2013-04-09 18:16:00,81.8,52.3,29.99,NE,55,0.0,0.0,36,0.00,,---,0.00,VWS V14.01,2013-04-09 22:16:00,
2013-04-09 18:21:00,81.8,53.7,29.99,SSE,148,0.0,0.0,38,0.00,,---,0.00,VWS V14.01,2013-04-09 22:21:00,
2013-04-09 18:26:00,81.6,52.8,29.99,SE,136,0.0,0.0,37,0.00,,---,0.00,VWS V14.01,2013-04-09 22:26:00,
2013-04-09 18:31:00,81.4,52.7,29.99,East,90,0.0,0.0,37,0.00,,---,0.00,VWS V14.01,2013-04-09 22:31:00,
2013-04-09 18:36:00,81.2,52.5,29.99,ENE,71,0.0,0.0,37,0.00,,---,0.00,VWS V14.01,2013-04-09 22:36:00,
2013-04-09 18:41:00,81.2,52.5,29.99,East,100,0.0,3.0,37,0.00,,---,0.00,VWS V14.01,2013-04-09 22:41:00,
2013-04-09 18:46:00,81.1,52.4,29.99,SSW,203,0.0,0.0,37,0.00,,---,0.00,VWS V14.01,2013-04-09 22:46:00,
2013-04-09 18:51:00,80.9,52.9,30.00,SSE,162,2.0,2.0,38,0.00,,---,0.00,VWS V14.01,2013-04-09 22:51:00,
2013-04-09 18:56:00,80.7,53.5,30.00,SSE,167,0.0,0.0,39,0.00,,---,0.00,VWS V14.01,2013-04-09 22:56:00,
2013-04-09 19:01:00,80.3,53.1,30.00,ESE,120,0.0,0.0,39,0.00,,---,0.00,VWS V14.01,2013-04-09 23:01:00,
2013-04-09 19:06:00,80.1,52.9,29.99,SSW,192,0.0,0.0,39,0.00,,---,0.00,VWS V14.01,2013-04-09 23:06:00,
2013-04-09 19:11:00,79.9,52.8,29.99,South,191,0.0,0.0,39,0.00,,---,0.00,VWS V14.01,2013-04-09 23:11:00,
2013-04-09 19:16:00,79.9,53.5,29.99,SSE,161,0.0,0.0,40,0.00,,---,0.00,VWS V14.01,2013-04-09 23:16:00,
2013-04-09 19:21:00,79.6,53.8,29.99,ESE,116,0.0,0.0,41,0.00,,---,0.00,VWS V14.01,2013-04-09 23:21:00,
2013-04-09 19:26:00,79.4,55.0,29.99,ESE,116,0.0,0.0,43,0.00,,---,0.00,VWS V14.01,2013-04-09 23:26:00,
2013-04-09 19:31:00,79.0,54.0,29.99,South,176,0.0,0.0,42,0.00,,---,0.00,VWS V14.01,2013-04-09 23:31:00,
2013-04-09 19:36:00,78.8,53.8,29.99,South,176,0.0,0.0,42,0.00,,---,0.00,VWS V14.01,2013-04-09 23:36:00,
2013-04-09 19:41:00,78.6,54.9,29.99,South,176,0.0,0.0,44,0.00,,---,0.00,VWS V14.01,2013-04-09 23:41:00,
2013-04-09 19:47:00,78.1,54.4,29.99,South,176,0.0,0.0,44,0.00,,---,0.00,VWS V14.01,2013-04-09 23:47:00,
2013-04-09 19:52:00,77.7,54.7,30.00,ESE,123,0.0,0.0,45,0.00,,---,0.00,VWS V14.01,2013-04-09 23:52:00,
2013-04-09 19:57:00,77.4,55.0,30.00,SE,124,0.0,0.0,46,0.00,,---,0.00,VWS V14.01,2013-04-09 23:57:00,
2013-04-09 20:02:00,77.0,55.2,30.00,SE,124,0.0,0.0,47,0.00,,---,0.00,VWS V14.01,2013-04-10 00:02:00,
2013-04-09 20:07:00,76.5,54.8,30.00,SE,124,0.0,0.0,47,0.00,,---,0.00,VWS V14.01,2013-04-10 00:07:00,
2013-04-09 20:12:00,76.1,55.6,30.00,SE,124,0.0,0.0,49,0.00,,---,0.00,VWS V14.01,2013-04-10 00:12:00,
2013-04-09 20:17:00,76.0,55.5,30.00,SE,124,0.0,0.0,49,0.00,,---,0.00,VWS V14.01,2013-04-10 00:17:00,
2013-04-09 20:22:00,75.6,55.1,30.00,SE,124,0.0,0.0,49,0.00,,---,0.00,VWS V14.01,2013-04-10 00:22:00,
2013-04-09 20:27:00,75.3,54.8,30.00,SE,124,0.0,0.0,49,0.00,,---,0.00,VWS V14.01,2013-04-10 00:27:00,
2013-04-09 20:32:00,74.9,55.6,30.00,SE,124,0.0,0.0,51,0.00,,---,0.00,VWS V14.01,2013-04-10 00:32:00,
2013-04-09 20:37:00,74.6,55.3,30.00,SE,124,0.0,0.0,51,0.00,,---,0.00,VWS V14.01,2013-04-10 00:37:00,
2013-04-09 20:42:00,74.2,56.0,30.00,SE,124,0.0,0.0,53,0.00,,---,0.00,VWS V14.01,2013-04-10 00:42:00,
2013-04-09 20:47:00,73.9,55.7,30.00,SE,124,0.0,0.0,53,0.00,,---,0.00,VWS V14.01,2013-04-10 00:47:00,
2013-04-09 20:52:00,73.7,55.5,30.01,SE,124,0.0,0.0,53,0.00,,---,0.00,VWS V14.01,2013-04-10 00:52:00,
2013-04-09 20:57:00,73.5,55.3,30.01,SE,124,0.0,0.0,53,0.00,,---,0.00,VWS V14.01,2013-04-10 00:57:00,
2013-04-09 21:02:00,73.2,56.1,30.01,SE,124,0.0,0.0,55,0.00,,---,0.00,VWS V14.01,2013-04-10 01:02:00,
2013-04-09 21:07:00,73.0,55.9,30.02,SE,124,0.0,0.0,55,0.00,,---,0.00,VWS V14.01,2013-04-10 01:07:00,
2013-04-09 21:12:00,72.8,55.2,30.02,SE,124,0.0,0.0,54,0.00,,---,0.00,VWS V14.01,2013-04-10 01:12:00,
2013-04-09 21:17:00,72.7,55.6,30.02,SE,124,0.0,0.0,55,0.00,,---,0.00,VWS V14.01,2013-04-10 01:17:00,
2013-04-09 21:22:00,72.5,55.9,30.02,SE,124,0.0,0.0,56,0.00,,---,0.00,VWS V14.01,2013-04-10 01:22:00,
2013-04-09 21:27:00,72.3,55.7,30.02,SE,124,0.0,0.0,56,0.00,,---,0.00,VWS V14.01,2013-04-10 01:27:00,
2013-04-09 21:32:00,72.1,55.6,30.02,SSE,161,0.0,0.0,56,0.00,,---,0.00,VWS V14.01,2013-04-10 01:32:00,
2013-04-09 21:37:00,72.1,55.6,30.02,SSE,161,0.0,0.0,56,0.00,,---,0.00,VWS V14.01,2013-04-10 01:37:00,
2013-04-09 21:42:00,72.1,55.6,30.02,SSE,161,0.0,0.0,56,0.00,,---,0.00,VWS V14.01,2013-04-10 01:42:00,
2013-04-09 21:47:00,72.1,55.6,30.02,SSE,161,0.0,0.0,56,0.00,,---,0.00,VWS V14.01,2013-04-10 01:47:00,
2013-04-09 21:52:00,72.1,55.6,30.02,South,171,0.0,0.0,56,0.00,,---,0.00,VWS V14.01,2013-04-10 01:52:00,
2013-04-09 21:57:00,72.0,55.5,30.02,South,169,0.0,0.0,56,0.00,,---,0.00,VWS V14.01,2013-04-10 01:57:00,
2013-04-09 22:02:00,72.0,55.5,30.02,South,169,0.0,0.0,56,0.00,,---,0.00,VWS V14.01,2013-04-10 02:02:00,
2013-04-09 22:07:00,71.8,55.3,30.03,SSE,162,0.0,0.0,56,0.00,,---,0.00,VWS V14.01,2013-04-10 02:07:00,
2013-04-09 22:12:00,71.8,55.8,30.03,SSE,161,0.0,0.0,57,0.00,,---,0.00,VWS V14.01,2013-04-10 02:12:00,
2013-04-09 22:17:00,71.6,55.6,30.03,SSE,164,0.0,0.0,57,0.00,,---,0.00,VWS V14.01,2013-04-10 02:17:00,
2013-04-09 22:22:00,71.5,55.5,30.02,South,182,0.0,0.0,57,0.00,,---,0.00,VWS V14.01,2013-04-10 02:22:00,
2013-04-09 22:27:00,71.5,55.5,30.02,South,176,0.0,0.0,57,0.00,,---,0.00,VWS V14.01,2013-04-10 02:27:00,
2013-04-09 22:32:00,71.5,55.0,30.02,East,96,0.0,0.0,56,0.00,,---,0.00,VWS V14.01,2013-04-10 02:32:00,
2013-04-09 22:37:00,71.5,55.5,30.02,SSW,200,0.0,0.0,57,0.00,,---,0.00,VWS V14.01,2013-04-10 02:37:00,
2013-04-09 22:42:00,71.5,55.5,30.02,SSW,199,0.0,0.0,57,0.00,,---,0.00,VWS V14.01,2013-04-10 02:42:00,
2013-04-09 22:47:00,71.5,55.0,30.02,South,171,0.0,0.0,56,0.00,,---,0.00,VWS V14.01,2013-04-10 02:47:00,
2013-04-09 22:52:00,71.3,55.3,30.02,South,171,0.0,0.0,57,0.00,,---,0.00,VWS V14.01,2013-04-10 02:52:00,
2013-04-09 22:57:00,71.1,54.6,30.02,SSE,161,0.0,0.0,56,0.00,,---,0.00,VWS V14.01,2013-04-10 02:57:00,
2013-04-09 23:02:00,71.1,55.1,30.02,South,172,0.0,0.0,57,0.00,,---,0.00,VWS V14.01,2013-04-10 03:02:00,
2013-04-09 23:07:00,70.9,54.9,30.02,South,174,0.0,0.0,57,0.00,,---,0.00,VWS V14.01,2013-04-10 03:07:00,
2013-04-09 23:12:00,71.1,54.6,30.02,SSW,209,0.0,0.0,56,0.00,,---,0.00,VWS V14.01,2013-04-10 03:12:00,
2013-04-09 23:17:00,71.1,55.1,30.02,South,185,0.0,0.0,57,0.00,,---,0.00,VWS V14.01,2013-04-10 03:17:00,
2013-04-09 23:22:00,71.3,54.8,30.01,SSW,208,1.0,4.0,56,0.00,,---,0.00,VWS V14.01,2013-04-10 03:22:00,
2013-04-09 23:27:00,71.3,55.3,30.01,SW,217,0.0,2.0,57,0.00,,---,0.00,VWS V14.01,2013-04-10 03:27:00,
2013-04-09 23:32:00,71.3,54.8,30.01,SW,217,0.0,0.0,56,0.00,,---,0.00,VWS V14.01,2013-04-10 03:32:00,
2013-04-09 23:37:00,71.1,55.1,30.01,SSE,160,0.0,0.0,57,0.00,,---,0.00,VWS V14.01,2013-04-10 03:37:00,
2013-04-09 23:42:00,70.9,54.9,30.01,SW,216,0.0,0.0,57,0.00,,---,0.00,VWS V14.01,2013-04-10 03:42:00,
2013-04-09 23:47:00,70.9,54.9,30.01,SW,219,0.0,1.0,57,0.00,,---,0.00,VWS V14.01,2013-04-10 03:47:00,
2013-04-09 23:52:00,70.9,54.9,30.01,SSW,192,0.0,0.0,57,0.00,,---,0.00,VWS V14.01,2013-04-10 03:52:00,
2013-04-09 23:57:00,70.9,55.4,30.01,SSW,192,0.0,0.0,58,0.00,,---,0.00,VWS V14.01,2013-04-10 03:57:00,